�������l�o���
Date,Time,MP-1(��Sv/h),MP-2(��Sv/h),MP-3(��Sv/h),MP-4(��Sv/h),MP-5(��Sv/h),MP-6(��Sv/h),MP-7(��Sv/h),MP-8(��Sv/h),����,����(m/s),���J
2020/08/24,00:00,0.708,1.017,0.641,1.240,0.897,0.400,0.695,0.652,���k��,0.8,��
2020/08/24,00:10,0.708,1.015,0.643,1.238,0.897,0.401,0.696,0.649,�k��,0.8,��
2020/08/24,00:20,0.705,1.016,0.641,1.238,0.896,0.400,0.695,0.649,���k��,0.8,��
2020/08/24,00:30,0.706,1.013,0.641,1.238,0.898,0.399,0.696,0.648,�k��,0.9,��
2020/08/24,00:40,0.707,1.015,0.643,1.237,0.894,0.400,0.696,0.651,�k��,1.2,��
2020/08/24,00:50,0.707,1.015,0.642,1.238,0.895,0.400,0.694,0.649,�k��,1.4,��
2020/08/24,01:00,0.706,1.015,0.641,1.239,0.895,0.401,0.696,0.649,�k�k��,1.9,��
2020/08/24,01:10,0.706,1.015,0.643,1.237,0.895,0.400,0.696,0.650,�k�k��,1.5,��
2020/08/24,01:20,0.706,1.016,0.642,1.236,0.895,0.400,0.695,0.648,�k�k��,1.2,��
2020/08/24,01:30,0.706,1.014,0.640,1.238,0.896,0.400,0.695,0.649,�k��,2.0,��
2020/08/24,01:40,0.707,1.014,0.640,1.239,0.897,0.400,0.696,0.648,�k��,1.7,��
2020/08/24,01:50,0.708,1.012,0.641,1.238,0.895,0.402,0.695,0.650,�k��,2.0,��
2020/08/24,02:00,0.706,1.013,0.641,1.239,0.896,0.400,0.695,0.651,�k��,2.0,��
2020/08/24,02:10,0.706,1.015,0.641,1.239,0.896,0.399,0.695,0.648,�k�k��,1.7,��
2020/08/24,02:20,0.707,1.014,0.641,1.238,0.898,0.400,0.696,0.651,�k��,2.0,��
2020/08/24,02:30,0.707,1.012,0.643,1.238,0.896,0.400,0.695,0.650,�k��,2.0,��
2020/08/24,02:40,0.706,1.015,0.641,1.234,0.894,0.400,0.693,0.649,�k�k��,2.0,��
2020/08/24,02:50,0.706,1.013,0.641,1.238,0.895,0.401,0.695,0.650,�k��,2.0,��
2020/08/24,03:00,0.709,1.015,0.641,1.238,0.894,0.401,0.696,0.649,�k�k��,1.5,��
2020/08/24,03:10,0.707,1.014,0.640,1.238,0.895,0.399,0.695,0.650,�k�k��,1.5,��
2020/08/24,03:20,0.707,1.015,0.640,1.238,0.895,0.401,0.695,0.649,�k�k��,1.5,��
2020/08/24,03:30,0.707,1.013,0.641,1.238,0.894,0.401,0.696,0.650,�k�k��,2.5,��
2020/08/24,03:40,0.709,1.015,0.641,1.236,0.893,0.399,0.695,0.650,�k�k��,2.6,��
2020/08/24,03:50,0.704,1.012,0.641,1.236,0.897,0.400,0.695,0.651,�k�k��,2.9,��
2020/08/24,04:00,0.708,1.012,0.641,1.239,0.894,0.401,0.695,0.649,�k�k��,3.5,��
2020/08/24,04:10,0.707,1.013,0.640,1.239,0.895,0.400,0.696,0.651,�k�k��,3.0,��
2020/08/24,04:20,0.705,1.011,0.641,1.239,0.896,0.399,0.695,0.650,�k�k��,2.9,��
2020/08/24,04:30,0.707,1.012,0.641,1.238,0.895,0.400,0.695,0.650,�k�k��,2.8,��
2020/08/24,04:40,0.709,1.014,0.641,1.239,0.896,0.400,0.695,0.649,�k�k��,2.8,��
2020/08/24,04:50,0.706,1.012,0.641,1.236,0.896,0.400,0.695,0.650,�k�k��,2.8,��
2020/08/24,05:00,0.706,1.014,0.640,1.240,0.893,0.399,0.695,0.650,�k�k��,3.2,��
2020/08/24,05:10,0.708,1.014,0.641,1.237,0.895,0.400,0.697,0.649,�k�k��,3.7,��
2020/08/24,05:20,0.708,1.013,0.641,1.241,0.895,0.401,0.695,0.649,�k�k��,3.7,��
2020/08/24,05:30,0.706,1.015,0.641,1.240,0.896,0.402,0.697,0.651,�k�k��,3.8,��
2020/08/24,05:40,0.708,1.014,0.641,1.238,0.896,0.401,0.696,0.651,�k,3.7,��
2020/08/24,05:50,0.707,1.012,0.641,1.238,0.894,0.402,0.696,0.650,�k,3.1,��
2020/08/24,06:00,0.708,1.015,0.640,1.238,0.895,0.400,0.695,0.651,�k,2.8,��
2020/08/24,06:10,0.706,1.015,0.641,1.236,0.896,0.400,0.694,0.651,�k�k��,2.8,��
2020/08/24,06:20,0.707,1.015,0.642,1.237,0.895,0.402,0.697,0.651,�k�k��,3.0,��
2020/08/24,06:30,0.707,1.013,0.640,1.237,0.895,0.401,0.695,0.649,�k�k��,3.0,��
2020/08/24,06:40,0.706,1.013,0.640,1.237,0.894,0.400,0.697,0.650,�k,2.8,��
2020/08/24,06:50,0.707,1.013,0.641,1.238,0.894,0.400,0.697,0.649,�k,2.9,��
2020/08/24,07:00,0.708,1.014,0.639,1.238,0.896,0.400,0.697,0.650,�k,3.0,��
2020/08/24,07:10,0.707,1.012,0.641,1.239,0.894,0.400,0.696,0.650,�k,2.2,��
2020/08/24,07:20,0.709,1.013,0.640,1.238,0.889,0.401,0.697,0.650,�k,2.2,��
2020/08/24,07:30,0.708,1.009,0.640,1.239,0.892,0.401,0.696,0.649,�k�k��,2.6,��
2020/08/24,07:40,0.709,1.011,0.641,1.237,0.894,0.401,0.697,0.650,�k�k��,4.3,��
2020/08/24,07:50,0.706,1.013,0.641,1.238,0.892,0.399,0.696,0.648,�k�k��,4.5,��
2020/08/24,08:00,0.708,1.011,0.641,1.239,0.891,0.400,0.698,0.651,�k�k��,4.2,��
2020/08/24,08:10,0.708,1.013,0.640,1.237,0.895,0.399,0.696,0.651,�k�k��,4.2,��
2020/08/24,08:20,0.709,1.012,0.642,1.237,0.896,0.400,0.696,0.651,�k,5.4,��
2020/08/24,08:30,0.710,1.009,0.640,1.238,0.896,0.400,0.698,0.649,�k�k��,4.9,��
2020/08/24,08:40,0.707,1.011,0.641,1.238,0.896,0.400,0.697,0.651,�k,5.8,��
2020/08/24,08:50,0.709,1.010,0.639,1.239,0.897,0.401,0.697,0.650,�k�k��,6.5,��
2020/08/24,09:00,0.707,1.009,0.639,1.236,0.895,0.400,0.696,0.647,�k�k��,6.6,��
2020/08/24,09:10,0.707,1.008,0.637,1.236,0.893,0.400,0.696,0.648,�k�k��,7.2,��
2020/08/24,09:20,0.710,1.004,0.639,1.238,0.896,0.399,0.696,0.646,�k�k��,7.7,��
2020/08/24,09:30,0.706,1.009,0.639,1.239,0.894,0.399,0.696,0.647,�k�k��,6.4,��
2020/08/24,09:40,0.708,1.005,0.638,1.238,0.895,0.398,0.695,0.649,�k��,6.9,��
2020/08/24,09:50,0.705,1.005,0.639,1.236,0.895,0.398,0.695,0.648,�k�k��,6.7,��
2020/08/24,10:00,0.707,1.005,0.638,1.239,0.897,0.398,0.695,0.647,�k�k��,6.8,��
2020/08/24,10:10,0.707,1.006,0.639,1.239,0.897,0.397,0.694,0.649,�k��,6.8,��
2020/08/24,10:20,0.707,1.010,0.641,1.236,0.895,0.399,0.696,0.650,�k�k��,6.3,��
2020/08/24,10:30,0.706,1.009,0.638,1.241,0.896,0.397,0.694,0.648,�k�k��,6.4,��
2020/08/24,10:40,0.707,1.010,0.639,1.241,0.897,0.398,0.696,0.649,�k�k��,6.4,��
2020/08/24,10:50,0.707,1.008,0.640,1.240,0.896,0.397,0.697,0.648,�k�k��,6.3,��
2020/08/24,11:00,0.707,1.006,0.640,1.241,0.894,0.397,0.695,0.650,�k�k��,5.9,��
2020/08/24,11:10,0.708,1.006,0.640,1.238,0.897,0.398,0.695,0.649,�k�k��,6.4,��
2020/08/24,11:20,0.708,1.007,0.640,1.243,0.895,0.397,0.695,0.648,�k�k��,6.4,��
2020/08/24,11:30,0.708,1.008,0.638,1.241,0.897,0.399,0.695,0.649,�k�k��,7.7,��
2020/08/24,11:40,0.709,1.007,0.641,1.240,0.899,0.397,0.696,0.649,�k�k��,7.5,��
2020/08/24,11:50,0.708,1.012,0.640,1.238,0.900,0.397,0.696,0.648,�k�k��,6.8,��
2020/08/24,12:00,0.707,1.012,0.641,1.237,0.897,0.398,0.695,0.649,�k�k��,7.7,��
2020/08/24,12:10,0.707,1.008,0.638,1.240,0.899,0.397,0.695,0.648,�k�k��,7.8,��
2020/08/24,12:20,0.709,1.011,0.639,1.239,0.898,0.398,0.695,0.650,�k�k��,8.3,��
2020/08/24,12:30,0.708,1.013,0.640,1.238,0.899,0.397,0.697,0.650,�k�k��,7.5,��
2020/08/24,12:40,0.709,1.010,0.639,1.240,0.898,0.397,0.695,0.649,�k�k��,7.8,��
2020/08/24,12:50,0.708,1.013,0.640,1.237,0.899,0.399,0.696,0.649,�k�k��,7.6,��
2020/08/24,13:00,0.709,1.013,0.639,1.239,0.900,0.397,0.696,0.649,�k�k��,6.9,��
2020/08/24,13:10,0.708,1.007,0.638,1.239,0.900,0.398,0.696,0.650,�k��,7.1,��
2020/08/24,13:20,0.708,1.012,0.639,1.241,0.898,0.397,0.695,0.650,�k�k��,6.3,��
2020/08/24,13:30,0.710,1.010,0.641,1.239,0.900,0.398,0.695,0.650,�k�k��,6.1,��
2020/08/24,13:40,0.706,1.012,0.640,1.240,0.899,0.397,0.696,0.650,�k�k��,5.7,��
2020/08/24,13:50,0.708,1.007,0.640,1.241,0.899,0.397,0.697,0.649,�k�k��,5.7,��
2020/08/24,14:00,0.706,1.012,0.640,1.241,0.899,0.395,0.695,0.649,�k�k��,6.0,��
2020/08/24,14:10,0.709,1.011,0.639,1.243,0.899,0.398,0.695,0.650,�k�k��,5.3,��
2020/08/24,14:20,0.707,1.008,0.640,1.241,0.901,0.397,0.697,0.651,�k�k��,3.7,��
2020/08/24,14:30,0.708,1.009,0.640,1.240,0.901,0.398,0.695,0.650,�k,4.1,��
2020/08/24,14:40,0.709,1.010,0.642,1.241,0.900,0.397,0.694,0.648,�k,5.2,��
2020/08/24,14:50,0.708,1.012,0.639,1.241,0.899,0.396,0.696,0.650,�k�k��,5.1,��
2020/08/24,15:00,0.705,1.012,0.640,1.242,0.901,0.397,0.697,0.649,�k�k��,5.2,��
2020/08/24,15:10,0.708,1.011,0.641,1.242,0.900,0.396,0.697,0.649,�k�k��,5.0,��
2020/08/24,15:20,0.707,1.012,0.641,1.241,0.903,0.398,0.695,0.648,�k�k��,5.0,��
2020/08/24,15:30,0.710,1.013,0.638,1.242,0.900,0.396,0.695,0.650,�k�k��,5.1,��
2020/08/24,15:40,0.708,1.015,0.641,1.242,0.900,0.397,0.695,0.648,�k�k��,5.0,��
2020/08/24,15:50,0.710,1.014,0.639,1.245,0.899,0.397,0.696,0.649,�k�k��,4.6,��
2020/08/24,16:00,0.709,1.015,0.638,1.242,0.899,0.396,0.696,0.650,�k,4.3,��
2020/08/24,16:10,0.709,1.016,0.639,1.244,0.899,0.398,0.693,0.650,�k,5.1,��
2020/08/24,16:20,0.710,1.013,0.640,1.242,0.899,0.398,0.694,0.649,�k�k��,4.9,��
2020/08/24,16:30,0.707,1.016,0.639,1.240,0.898,0.398,0.696,0.649,�k�k��,5.1,��
2020/08/24,16:40,0.710,1.015,0.639,1.243,0.901,0.396,0.696,0.648,�k,5.5,��
2020/08/24,16:50,0.707,1.013,0.638,1.243,0.899,0.397,0.696,0.649,�k�k��,5.3,��
2020/08/24,17:00,0.706,1.013,0.640,1.242,0.899,0.396,0.696,0.650,�k,4.6,��
2020/08/24,17:10,0.707,1.015,0.639,1.243,0.901,0.396,0.695,0.650,�k,4.7,��
2020/08/24,17:20,0.710,1.013,0.641,1.241,0.901,0.396,0.695,0.649,�k�k��,4.6,��
2020/08/24,17:30,0.709,1.014,0.641,1.241,0.900,0.399,0.695,0.649,�k,4.9,��
2020/08/24,17:40,0.707,1.013,0.642,1.242,0.900,0.398,0.694,0.649,�k,5.2,��
2020/08/24,17:50,0.707,1.016,0.641,1.241,0.900,0.399,0.696,0.650,�k,5.6,��
2020/08/24,18:00,0.708,1.015,0.641,1.241,0.901,0.399,0.695,0.652,�k,5.3,��
2020/08/24,18:10,0.709,1.016,0.641,1.244,0.900,0.399,0.695,0.649,�k,4.3,��
2020/08/24,18:20,0.710,1.017,0.642,1.242,0.900,0.398,0.696,0.651,�k,4.4,��
2020/08/24,18:30,0.709,1.015,0.641,1.242,0.902,0.398,0.695,0.650,�k,4.3,��
2020/08/24,18:40,0.709,1.019,0.641,1.244,0.901,0.397,0.696,0.648,�k,4.8,��
2020/08/24,18:50,0.708,1.017,0.641,1.242,0.899,0.398,0.696,0.648,�k,4.6,��
2020/08/24,19:00,0.708,1.015,0.642,1.242,0.901,0.397,0.697,0.648,�k,4.3,��
2020/08/24,19:10,0.708,1.017,0.640,1.242,0.902,0.398,0.694,0.649,�k�k��,5.0,��
2020/08/24,19:20,0.708,1.018,0.642,1.245,0.900,0.397,0.696,0.651,�k�k��,4.8,��
2020/08/24,19:30,0.708,1.015,0.639,1.242,0.899,0.396,0.697,0.651,�k�k��,4.7,��
2020/08/24,19:40,0.709,1.016,0.641,1.244,0.901,0.397,0.694,0.651,�k�k��,4.9,��
2020/08/24,19:50,0.711,1.017,0.640,1.244,0.900,0.397,0.695,0.648,�k�k��,5.0,��
2020/08/24,20:00,0.710,1.016,0.641,1.243,0.901,0.397,0.698,0.651,�k�k��,4.8,��
2020/08/24,20:10,0.709,1.020,0.640,1.242,0.902,0.397,0.696,0.651,�k�k��,4.4,��
2020/08/24,20:20,0.708,1.018,0.642,1.241,0.902,0.397,0.695,0.651,�k,3.8,��
2020/08/24,20:30,0.709,1.017,0.641,1.243,0.902,0.398,0.697,0.652,�k�k��,5.1,��
2020/08/24,20:40,0.708,1.015,0.641,1.242,0.901,0.398,0.695,0.650,�k,5.1,��
2020/08/24,20:50,0.709,1.018,0.639,1.243,0.901,0.397,0.696,0.651,�k�k��,4.4,��
2020/08/24,21:00,0.710,1.017,0.641,1.244,0.901,0.398,0.697,0.651,�k,5.5,��
2020/08/24,21:10,0.708,1.017,0.642,1.244,0.899,0.396,0.697,0.651,�k,5.3,��
2020/08/24,21:20,0.708,1.017,0.641,1.242,0.899,0.396,0.694,0.650,�k�k��,4.8,��
2020/08/24,21:30,0.707,1.016,0.642,1.244,0.901,0.398,0.697,0.652,�k,5.6,��
2020/08/24,21:40,0.709,1.015,0.642,1.241,0.901,0.396,0.697,0.653,�k,4.4,��
2020/08/24,21:50,0.707,1.016,0.641,1.244,0.899,0.397,0.697,0.653,�k,5.1,��
2020/08/24,22:00,0.707,1.017,0.641,1.242,0.903,0.397,0.696,0.651,�k,5.0,��
2020/08/24,22:10,0.706,1.016,0.642,1.243,0.902,0.397,0.696,0.652,�k,4.5,��
2020/08/24,22:20,0.706,1.016,0.640,1.243,0.900,0.397,0.695,0.650,�k,3.5,��
2020/08/24,22:30,0.708,1.016,0.641,1.242,0.898,0.398,0.697,0.652,�k,3.9,��
2020/08/24,22:40,0.706,1.016,0.642,1.242,0.899,0.398,0.695,0.651,�k,4.1,��
2020/08/24,22:50,0.708,1.016,0.641,1.244,0.898,0.399,0.696,0.650,�k,3.9,��
2020/08/24,23:00,0.707,1.017,0.642,1.242,0.899,0.396,0.697,0.651,�k,3.9,��
2020/08/24,23:10,0.707,1.018,0.640,1.243,0.901,0.397,0.697,0.652,�k,4.0,��
2020/08/24,23:20,0.708,1.013,0.640,1.241,0.900,0.396,0.694,0.651,�k,3.7,��
2020/08/24,23:30,0.707,1.016,0.641,1.242,0.901,0.397,0.695,0.650,�k,4.4,��
2020/08/24,23:40,0.707,1.018,0.642,1.243,0.901,0.398,0.697,0.652,�k�k��,4.4,��
2020/08/24,23:50,0.708,1.016,0.641,1.242,0.900,0.396,0.696,0.651,�k�k��,4.0,��
